STARLINK-11226 [DTC]

Last updated on Tue Oct 01 2024 00:02:04 GMT+0000 (Coordinated Universal Time)

1 60907U 24154E 24274.21454452 .00014976 00000+0 95257-4 0 9992 2 60907 53.1584 203.0481 0000884 72.2468 287.8650 15.76747480 5962
UTC large
Height (km)
Speed (km/s)
/
Latitude / Longitude
Inclination (degrees)
Orbital Period (minutes)
Azimuth
Elevation
Range (km)
Doppler Factor

Next 0 passes for location: London (51.5072 / 0.1276)

Sorry there are no passes over London.